Voltar ao catálogo

SL-14 R/B

AtivoPO
NORAD 15945·ROCKET BODY·🇷🇺 Russia

Lançado Aug 8, 1985 de Plesetsk Cosmodrome

Loading…

Próximas Passagens (próximas 24 horas)

TLE

AtualizadoSource: Space-Track

Época: Sep 14, 2026, 06:57 UTC

1 15945U 85069B   26257.29003895  .00000351  00000-0  36756-4 0  9990
2 15945  82.5276 207.5589 0017243 289.4045  70.5307 14.86569316200857

Acompanhe SL-14 R/B em tempo real com AllMySat

Download on the App Store